Regional Weather Roundup
Issued by NWS Charleston, WV

Home | Current Version | Previous Version | Graphics & Text | Print | Product List | Glossary On
Versions: 1 2 3 4 5 6 7 8 9 10 11 12 13 14 15 16 17 18 19 20 21 22 23 24 25 26 27 28 29 30 31 32 33 34 35 36 37 38 39 40 41 42 43 44 45 46 47 48 49 50
000
ASUS41 KRLX 252210
RWRRLX
West Virginia Regional Weather Roundup
National Weather Service Charleston WV
600 PM EDT MON MAY 25 2015

Note: "fair" indicates few or no clouds below 12,000 feet with no
significant weather and/or obstructions to visibility.

WVZ003-252300-
Northern Panhandle of West Virginia

CITY           SKY/WX    TMP DP  RH WIND       PRES   REMARKS
WHEELING       NOT AVBL
$$

WVZ009-252300-
Northwest West Virginia

CITY           SKY/WX    TMP DP  RH WIND       PRES   REMARKS
PARKERSBURG    MOSUNNY   83  62  49 S7        30.15F
$$

WVZ006-252300-
Western West Virginia

CITY           SKY/WX    TMP DP  RH WIND       PRES   REMARKS
HUNTINGTON     PTSUNNY   81  63  54 W3        30.14F
$$

WVZ015-252300-
West Central West Virginia

CITY           SKY/WX    TMP DP  RH WIND       PRES   REMARKS
CHARLESTON     MOSUNNY   85  60  42 VRB6      30.14F
$$

WVZ022-031-252300-
North Central West Virginia

CITY           SKY/WX    TMP DP  RH WIND       PRES   REMARKS
CLARKSBURG     SUNNY     84  56  38 W8        30.15F
MORGANTOWN     SUNNY     85  53  33 SW8       30.16S
$$

WVZ025-035-042-045-252300-
Southern West Virginia

CITY           SKY/WX    TMP DP  RH WIND       PRES   REMARKS
BECKLEY        SUNNY     82  50  32 SW6       30.23F
LOGAN            N/A     82  61  47 CALM      30.15F
BLUEFIELD      PTSUNNY   81  57  43 S8        30.27S
LEWISBURG      SUNNY     82  50  33 SW3       30.25S
$$

WVZ047-252300-
Northern Mountains of West Virginia

CITY           SKY/WX    TMP DP  RH WIND       PRES   REMARKS
ELKINS         SUNNY     84  52  33 NW8       30.20S
$$

WVZ052-252300-
Eastern Panhandle of West Virginia

CITY           SKY/WX    TMP DP  RH WIND       PRES   REMARKS
MARTINSBURG    SUNNY     82  61  48 S10       30.16F
PETERSBURG     SUNNY     82  55  39 SE10      30.14F
$$



USA.gov is the U.S. government's official web portal to all federal, state and local government web resources and services.